Погода в Строителе

Россия / Тамбовская область     52°39′04″N   41°25′51″E
темп.,
°C
ветер,
м/с
пор.,
м/с
влажн.,
%
обл.,
%
осадки,
мм/ч
давл.,
гПа
погр.,
м
13 июня, вс
вс1300:00+14ю369413 0.2 1008117
03:00+13ю38965 0.2 1008166
06:00+15ю479595 0.0 1008247
09:00+19ююз457913 0.1 1009683
12:00+22юз566437 0.1 10091422
15:00+21юз4673100 0.9 1009479
18:00+22ю34752 0.9 1009270
21:00+17ю349197 1.0 101064
14 июня, пн
пн1400:00+16ююв229429 0.0 101130
03:00+15ююв229390 0.0 101212
06:00+17юв23915 0.0 1013116
09:00+22юв22715 0.0 1014688
12:00+24вюв216336 0.8 10141226
15:00+24в2264100 2.1 10141175
18:00+24в116713 0.4 1013960
21:00+18в2289100 0.8 101413
15 июня, вт
вт1500:00+17в1193100 0.7 101411
03:00+16в1194100 0.7 101411
06:00+18в1290100 0.0 101490
09:00+21св1180100 0.1 1013445
12:00+23св2270100 1.9 1012874
15:00+22в237598 3.8 1011710
18:00+20ю2287100 1.1 1010110
21:00+18юз1190100 1.4 101011
16 июня, ср
ср1600:00+18ссз229278 0.3 100918
03:00+17ссз239687 2.8 100975
06:00+18ссз239265 0.0 1009127
09:00+22сз347892 0.1 1009588
12:00+24сз446695 0.8 10091207
15:00+24зсз467188 2.7 10101184
18:00+22сз478285 2.0 1011467
21:00+19с399038 2.1 1013231
17 июня, чт
чт1700:00+17с411967 0.0 1014325
03:00+15с411975 0.0 1016347
06:00+16ссв411911 0.0 1018411
09:00+20ссв68640 0.0 1019917
12:00+23св67490 0.0 10201509
15:00+23св57510 0.0 10211608
18:00+21св47650 0.0 1022611
21:00+15ссв33830 0.0 102332